Tracking 29892 objects as of 21-Nov-2024
HD Live streaming from Space Station
objects crossing your sky now

NOAA 16 DEB

Track NOAA 16 DEB now!
10-day predictions


NORAD ID: 41420
Int'l Code: 2000-055KZ
Perigee: 602.0 km
Apogee: 627.6 km
Inclination: 98.9 °
Period: 96.8 minutes
Semi major axis: 6985 km
RCS: Unknown
Launch date: September 21, 2000
Source: United States (US)
Launch site: AIR FORCE WESTERN TEST RANGE (AFWTR)

Note: This is SATELLITE DEBRIS
Your satellite tracking list
Your tracking list is empty




NASA's NSSDC Master Catalog

Two Line Element Set (TLE):
1 41420U 00055KZ  24325.56411882  .00124330  00000-0  13645-1 0  9995
2 41420  98.9143 182.4139 0018369 239.2358 120.7046 14.86887128460816
Source of the keplerian elements: AFSPC